Tanana, AK

2:31 AM AKST on November 14, 2019 (GMT -0900)
Calhoun Memorial

Weather History for PATA - October, 2019

Change the Weather History Date:

Monday, October 21, 2019

  Actual Average Record
Temperature  
Mean Temperature 30 °F -  
Max Temperature 33 °F 24 °F 43 °F (2013)
Min Temperature 27 °F 8 °F -13 °F (1958)
Degree Days  
Heating Degree Days 36    
Moisture  
Dew Point 23 °F    
Average Humidity 76    
Maximum Humidity 89    
Minimum Humidity 66    
Precipitation  
Precipitation 0.00 in - - ()
Sea Level Pressure  
Sea Level Pressure 29.72 in    
Wind  
Wind Speed 3 mph (ENE)    
Max Wind Speed 10 mph    
Max Gust Speed -    
Visibility 8 miles    
Events Snow    
Averages and records for this station are not official NWS values.
T = Trace of Precipitation, MM = Missing Value Source: NWS Daily Summary

Daily Weather History Graph

Daily Weather History Graph

Search for Another Location

Airport or City:

Astronomy

Oct. 21, 2019 Rise Set
Actual Time 9:21 AM AKDT 6:23 PM AKDT
Civil Twilight 8:29 AM AKDT 7:15 PM AKDT
Nautical Twilight 7:31 AM AKDT 8:12 PM AKDT
Astronomical Twilight 6:33 AM AKDT 9:10 PM AKDT
Moon 11:21 PM AKDT (10/21) 6:22 PM AKDT (10/21)
Length of Visible Light 10h 46m
Length of Day
9h 02m
Waning Gibbous, 47% of the Moon is Illuminated
Oct 21
Waning Gibbous
Oct 27
New
Nov 4
First Quarter
Nov 12
Full
Nov 19
Last Quarter

Hourly Weather History & Observations

Time (AKDT) Temp. Windchill Dew Point Humidity Pressure Visibility Wind Dir Wind Speed Gust Speed Precip Events Conditions
12:52 AM 27.0 °F - 19.9 °F 75% 29.73 in 10.0 mi Calm Calm - N/A   Overcast
1:52 AM 27.0 °F 20.5 °F 21.0 °F 78% 29.72 in 10.0 mi ENE 5.8 mph - N/A   Overcast
2:52 AM 27.0 °F 23.0 °F 21.0 °F 78% 29.72 in 10.0 mi East 3.5 mph - N/A   Overcast
3:52 AM 27.0 °F - 21.0 °F 78% 29.72 in 10.0 mi Calm Calm - N/A   Overcast
4:52 AM 27.0 °F 17.3 °F 21.0 °F 78% 29.71 in 10.0 mi NE 10.4 mph - N/A   Overcast
5:52 AM 27.0 °F 18.0 °F 21.0 °F 78% 29.71 in 10.0 mi ENE 9.2 mph - N/A   Overcast
7:52 AM 27.0 °F 20.5 °F 21.0 °F 78% 29.71 in 10.0 mi NE 5.8 mph - N/A   Mostly Cloudy
8:52 AM 28.0 °F 20.8 °F 21.0 °F 75% 29.71 in 10.0 mi NE 6.9 mph - N/A   Mostly Cloudy
9:52 AM 28.0 °F - 21.0 °F 75% 29.72 in 10.0 mi Calm Calm - N/A   Mostly Cloudy
10:52 AM 28.9 °F - 21.0 °F 72% 29.72 in 10.0 mi Calm Calm - N/A   Overcast
11:52 AM 30.0 °F - 21.0 °F 69% 29.72 in 9.0 mi Calm Calm - N/A Snow Light Snow
12:52 PM 30.0 °F 26.5 °F 21.0 °F 69% 29.73 in 10.0 mi ESE 3.5 mph - N/A   Mostly Cloudy
1:52 PM 30.9 °F 23.5 °F 21.0 °F 67% 29.72 in 10.0 mi East 8.1 mph - N/A   Mostly Cloudy
2:52 PM 32.0 °F 26.4 °F 21.9 °F 66% 29.71 in 10.0 mi ESE 5.8 mph - N/A   Mostly Cloudy
3:52 PM 32.0 °F 28.7 °F 21.9 °F 66% 29.71 in 10.0 mi East 3.5 mph - N/A   Overcast
4:52 PM 32.0 °F 27.5 °F 21.9 °F 66% 29.71 in 9.0 mi East 4.6 mph - N/A Snow Light Snow
5:52 PM 32.0 °F 28.7 °F 23.0 °F 69% 29.71 in 9.0 mi ENE 3.5 mph - N/A Snow Light Snow
6:52 PM 30.9 °F 26.2 °F 23.0 °F 72% 29.71 in 9.0 mi ENE 4.6 mph - N/A   Overcast
7:18 PM 30.9 °F - 23.0 °F 72% 29.69 in 9.0 mi Calm Calm - N/A Snow Light Snow
7:40 PM 30.9 °F - 23.0 °F 72% 29.70 in 9.0 mi Calm Calm - N/A Snow Light Snow
7:52 PM 30.9 °F - 23.0 °F 72% 29.72 in 9.0 mi Calm Calm - N/A Snow Light Snow
8:42 PM 30.9 °F - 23.0 °F 72% 29.70 in 9.0 mi Calm Calm - N/A Snow Light Snow
8:52 PM 30.9 °F 27.5 °F 23.0 °F 72% 29.72 in 9.0 mi NE 3.5 mph - N/A Snow Light Snow
9:17 PM 30.0 °F 25.2 °F 24.1 °F 79% 29.71 in 7.0 mi East 4.6 mph - N/A Snow Light Snow
9:52 PM 30.0 °F 24.1 °F 25.0 °F 82% 29.73 in 4.0 mi East 5.8 mph - N/A Snow Light Snow
10:17 PM 30.0 °F 26.5 °F 25.0 °F 82% 29.71 in 6.0 mi ENE 3.5 mph - N/A Snow Light Snow
10:31 PM 30.0 °F - 25.0 °F 82% 29.71 in 1.8 mi Calm Calm - N/A Snow Light Snow
10:41 PM 28.9 °F 25.2 °F 26.1 °F 89% 29.71 in 1.0 mi NNE 3.5 mph - N/A Snow Light Snow
10:52 PM 28.9 °F - 26.1 °F 89% 29.73 in 2.0 mi Calm Calm - N/A Snow Light Snow
11:11 PM 28.9 °F - 26.1 °F 89% 29.72 in 1.5 mi Calm Calm - N/A Snow Light Snow
11:52 PM 28.9 °F 25.2 °F 26.1 °F 89% 29.74 in 2.0 mi NE 3.5 mph - N/A Snow Light Snow